NKS1504 KFLL-KEYW

Flight info

Callsign NKS1504
Flight time 0h 41m
Altitude 22000
Route MAYNR3 MAYNR FNTSY FNTSY1
Aircraft A320/M-SDE3FGHIRWY/LB1

Departure

Time 2026-05-03 21:36
Airport Fort Lauderdale Hollywood International Airport (KFLL)

Arrival

Time 2026-05-03 22:17
Airport Key West International Airport (KEYW)
Time Latitude Longitude Altitude Speed Heading
2026-05-03 20:45 26.06879 -80.14211 16 ft 0 kts
2026-05-03 20:48 26.06878 -80.14211 16 ft 0 kts
2026-05-03 20:56 26.06853 -80.14210 18 ft 4 kts 348°
2026-05-03 20:57 26.06828 -80.14200 18 ft 4 kts 318°
2026-05-03 20:57 26.06818 -80.14182 17 ft 1 kts 270°
2026-05-03 20:58 26.06818 -80.14184 17 ft 2 kts 269°
2026-05-03 20:59 26.06818 -80.14192 17 ft 0 kts 269°
2026-05-03 20:59 26.06818 -80.14195 17 ft 2 kts 269°
2026-05-03 20:59 26.06815 -80.14237 16 ft 6 kts 271°
2026-05-03 21:00 26.06816 -80.14257 16 ft 0 kts 273°
2026-05-03 21:00 26.06817 -80.14261 16 ft 1 kts 273°
2026-05-03 21:01 26.06817 -80.14270 16 ft 3 kts 273°
2026-05-03 21:01 26.06818 -80.14305 16 ft 6 kts 270°
2026-05-03 21:01 26.06818 -80.14315 16 ft 0 kts 270°
2026-05-03 21:03 26.06818 -80.14319 16 ft 0 kts 270°
2026-05-03 21:03 26.06818 -80.14320 16 ft 1 kts 270°
2026-05-03 21:03 26.06818 -80.14347 16 ft 0 kts 270°
2026-05-03 21:04 26.06818 -80.14349 16 ft 0 kts 270°
2026-05-03 21:05 26.06818 -80.14353 16 ft 0 kts 271°
2026-05-03 21:05 26.06818 -80.14354 16 ft 0 kts 271°
2026-05-03 21:05 26.06818 -80.14357 16 ft 1 kts 270°
2026-05-03 21:05 26.06818 -80.14369 16 ft 0 kts 270°
2026-05-03 21:07 26.06818 -80.14370 16 ft 0 kts 270°
2026-05-03 21:07 26.06818 -80.14382 16 ft 6 kts 270°
2026-05-03 21:07 26.06819 -80.14452 16 ft 11 kts 270°
2026-05-03 21:08 26.06819 -80.14543 16 ft 13 kts 267°
2026-05-03 21:08 26.06768 -80.14627 15 ft 14 kts 260°
2026-05-03 21:08 26.06766 -80.14746 15 ft 17 kts 270°
2026-05-03 21:08 26.06766 -80.14886 15 ft 19 kts 270°
2026-05-03 21:09 26.06769 -80.15010 16 ft 14 kts 270°
2026-05-03 21:09 26.06755 -80.15123 17 ft 15 kts 230°
2026-05-03 21:09 26.06695 -80.15173 21 ft 11 kts 258°
2026-05-03 21:09 26.06695 -80.15263 18 ft 15 kts 270°
2026-05-03 21:10 26.06697 -80.15397 16 ft 19 kts 270°
2026-05-03 21:10 26.06697 -80.15469 16 ft 0 kts 270°
2026-05-03 21:10 26.06697 -80.15470 16 ft 0 kts 270°
2026-05-03 21:11 26.06697 -80.15477 16 ft 2 kts 270°
2026-05-03 21:12 26.06697 -80.15489 16 ft 0 kts 270°
2026-05-03 21:12 26.06697 -80.15503 16 ft 3 kts 270°
2026-05-03 21:13 26.06697 -80.15530 16 ft 2 kts 270°
2026-05-03 21:13 26.06697 -80.15536 16 ft 0 kts 270°
2026-05-03 21:13 26.06697 -80.15537 16 ft 1 kts 270°
2026-05-03 21:14 26.06697 -80.15549 16 ft 2 kts 270°
2026-05-03 21:14 26.06697 -80.15564 16 ft 0 kts 270°
2026-05-03 21:19 26.06697 -80.15565 16 ft 1 kts 270°
2026-05-03 21:19 26.06697 -80.15579 16 ft 3 kts 270°
2026-05-03 21:19 26.06698 -80.15600 16 ft 0 kts 270°
2026-05-03 21:22 26.06698 -80.15607 16 ft 1 kts 270°
2026-05-03 21:23 26.06698 -80.15608 16 ft 0 kts 270°
2026-05-03 21:23 26.06698 -80.15609 16 ft 1 kts 270°
2026-05-03 21:23 26.06698 -80.15619 16 ft 1 kts 271°
2026-05-03 21:23 26.06698 -80.15620 16 ft 0 kts 271°
2026-05-03 21:27 26.06698 -80.15621 16 ft 1 kts 271°
2026-05-03 21:27 26.06698 -80.15633 16 ft 0 kts 270°
2026-05-03 21:28 26.06698 -80.15635 16 ft 1 kts 270°
2026-05-03 21:28 26.06698 -80.15653 16 ft 4 kts 270°
2026-05-03 21:28 26.06698 -80.15690 16 ft 6 kts 270°
2026-05-03 21:28 26.06699 -80.15705 16 ft 0 kts 270°
2026-05-03 21:29 26.06699 -80.15715 16 ft 3 kts 270°
2026-05-03 21:29 26.06699 -80.15743 16 ft 5 kts 269°
2026-05-03 21:29 26.06698 -80.15763 16 ft 0 kts 270°
2026-05-03 21:30 26.06698 -80.15768 16 ft 2 kts 269°
2026-05-03 21:30 26.06696 -80.15791 16 ft 4 kts 254°
2026-05-03 21:30 26.06685 -80.15809 17 ft 0 kts 227°
2026-05-03 21:34 26.06684 -80.15810 17 ft 0 kts 227°
2026-05-03 21:34 26.06639 -80.15823 16 ft 9 kts 180°
2026-05-03 21:34 26.06599 -80.15817 18 ft 8 kts 156°
2026-05-03 21:34 26.06589 -80.15791 20 ft 0 kts 90°
2026-05-03 21:35 26.06589 -80.15645 23 ft 54 kts 90°
2026-05-03 21:35 26.06586 -80.15238 22 ft 100 kts 90°
2026-05-03 21:35 26.06582 -80.14254 61 ft 150 kts 90°
2026-05-03 21:35 26.06569 -80.13039 486 ft 162 kts 88°
2026-05-03 21:36 26.06588 -80.11775 1132 ft 165 kts 88°
2026-05-03 21:36 26.06614 -80.10447 1560 ft 181 kts 87°
2026-05-03 21:36 26.06641 -80.08956 1848 ft 204 kts 86°
2026-05-03 21:36 26.06666 -80.07293 2110 ft 226 kts 89°
2026-05-03 21:37 26.06689 -80.05447 2444 ft 251 kts 88°
2026-05-03 21:37 26.06708 -80.03418 2992 ft 269 kts 89°
2026-05-03 21:37 26.06723 -80.01310 3694 ft 277 kts 90°
2026-05-03 21:37 26.06744 -79.99145 3924 ft 281 kts 89°
2026-05-03 21:38 26.06790 -79.96966 4005 ft 282 kts 89°
2026-05-03 21:38 26.06855 -79.94788 4013 ft 281 kts 89°
2026-05-03 21:38 26.06934 -79.92593 4009 ft 286 kts 92°
2026-05-03 21:38 26.06969 -79.90405 4007 ft 281 kts 91°
2026-05-03 21:39 26.06995 -79.88256 4007 ft 282 kts 90°
2026-05-03 21:39 26.07032 -79.86077 4008 ft 282 kts 89°
2026-05-03 21:39 26.06907 -79.83913 4005 ft 280 kts 107°
2026-05-03 21:39 26.05999 -79.82038 4005 ft 276 kts 135°
2026-05-03 21:40 26.04434 -79.80866 4006 ft 271 kts 163°
2026-05-03 21:40 26.02608 -79.80359 4007 ft 270 kts 171°
2026-05-03 21:40 26.00763 -79.79972 4001 ft 270 kts 172°
2026-05-03 21:40 25.98909 -79.79599 4000 ft 270 kts 172°
2026-05-03 21:41 25.97059 -79.79230 4002 ft 270 kts 172°
2026-05-03 21:41 25.95204 -79.78865 4001 ft 270 kts 174°
2026-05-03 21:41 25.93355 -79.78964 4000 ft 265 kts 198°
2026-05-03 21:41 25.91730 -79.79824 4005 ft 262 kts 214°
2026-05-03 21:42 25.90196 -79.80918 4002 ft 262 kts 215°
2026-05-03 21:42 25.88662 -79.82018 3995 ft 261 kts 214°
2026-05-03 21:42 25.87133 -79.83115 3997 ft 262 kts 214°
2026-05-03 21:42 25.85603 -79.84214 3996 ft 261 kts 214°
2026-05-03 21:43 25.84072 -79.85312 4048 ft 264 kts 214°
2026-05-03 21:43 25.82523 -79.86420 4967 ft 264 kts 215°
2026-05-03 21:43 25.80980 -79.87521 5957 ft 264 kts 216°
2026-05-03 21:43 25.79429 -79.88629 6892 ft 266 kts 215°
2026-05-03 21:44 25.77866 -79.89747 7743 ft 269 kts 215°
2026-05-03 21:44 25.76275 -79.90882 8622 ft 273 kts 215°
2026-05-03 21:44 25.74690 -79.92013 9511 ft 276 kts 216°
2026-05-03 21:44 25.73059 -79.93179 10190 ft 286 kts 216°
2026-05-03 21:45 25.71324 -79.94426 10429 ft 309 kts 216°
2026-05-03 21:45 25.69452 -79.95769 10607 ft 331 kts 215°
2026-05-03 21:45 25.67479 -79.97179 11046 ft 342 kts 215°
2026-05-03 21:45 25.65460 -79.98615 11687 ft 346 kts 215°
2026-05-03 21:46 25.63423 -80.00060 12365 ft 349 kts 215°
2026-05-03 21:46 25.61372 -80.01518 13038 ft 352 kts 215°
2026-05-03 21:46 25.59300 -80.02991 13651 ft 356 kts 215°
2026-05-03 21:46 25.57197 -80.04490 14230 ft 360 kts 215°
2026-05-03 21:47 25.55082 -80.05998 14851 ft 362 kts 215°
2026-05-03 21:47 25.52957 -80.07512 15419 ft 365 kts 215°
2026-05-03 21:47 25.50839 -80.09018 15864 ft 367 kts 215°
2026-05-03 21:47 25.48691 -80.10542 15971 ft 367 kts 215°
2026-05-03 21:48 25.46543 -80.12066 16000 ft 366 kts 215°
2026-05-03 21:48 25.44397 -80.13589 16002 ft 366 kts 215°
2026-05-03 21:48 25.42249 -80.15111 16049 ft 369 kts 215°
2026-05-03 21:48 25.40082 -80.16646 16634 ft 370 kts 215°
2026-05-03 21:49 25.37908 -80.18186 17246 ft 372 kts 216°
2026-05-03 21:49 25.35722 -80.19734 17836 ft 374 kts 216°
2026-05-03 21:49 25.33519 -80.21292 18398 ft 377 kts 216°
2026-05-03 21:49 25.31299 -80.22862 18925 ft 380 kts 216°
2026-05-03 21:50 25.29061 -80.24447 19416 ft 383 kts 216°
2026-05-03 21:50 25.26810 -80.26042 19923 ft 386 kts 216°
2026-05-03 21:50 25.24573 -80.27628 20422 ft 388 kts 216°
2026-05-03 21:50 25.22292 -80.29241 20928 ft 390 kts 216°
2026-05-03 21:51 25.19999 -80.30859 21418 ft 392 kts 216°
2026-05-03 21:51 25.17693 -80.32487 21859 ft 394 kts 216°
2026-05-03 21:51 25.15381 -80.34119 21994 ft 396 kts 216°
2026-05-03 21:51 25.13019 -80.35790 22020 ft 409 kts 216°
2026-05-03 21:52 25.10593 -80.37509 22018 ft 420 kts 216°
2026-05-03 21:52 25.08119 -80.39260 22019 ft 424 kts 216°
2026-05-03 21:52 25.05630 -80.41011 22016 ft 425 kts 216°
2026-05-03 21:52 25.03137 -80.42758 22016 ft 425 kts 216°
2026-05-03 21:53 25.00638 -80.44511 22004 ft 426 kts 216°
2026-05-03 21:53 24.98132 -80.46269 22018 ft 427 kts 216°
2026-05-03 21:53 24.95654 -80.48008 22016 ft 428 kts 216°
2026-05-03 21:53 24.93144 -80.49772 22017 ft 428 kts 216°
2026-05-03 21:54 24.90636 -80.51535 22017 ft 428 kts 216°
2026-05-03 21:54 24.88149 -80.53282 22011 ft 413 kts 216°
2026-05-03 21:54 24.85846 -80.55050 22015 ft 397 kts 223°
2026-05-03 21:54 24.83922 -80.57173 21454 ft 386 kts 232°
2026-05-03 21:55 24.82454 -80.59638 19926 ft 387 kts 245°
2026-05-03 21:55 24.81542 -80.62439 18505 ft 390 kts 257°
2026-05-03 21:55 24.81169 -80.65322 17896 ft 379 kts 263°
2026-05-03 21:55 24.80883 -80.68152 17520 ft 369 kts 262°
2026-05-03 21:56 24.80562 -80.70940 16939 ft 365 kts 262°
2026-05-03 21:56 24.80222 -80.73708 16371 ft 361 kts 262°
2026-05-03 21:56 24.79884 -80.76440 15802 ft 358 kts 262°
2026-05-03 21:56 24.79560 -80.79111 15240 ft 355 kts 262°
2026-05-03 21:57 24.79243 -80.81806 14657 ft 353 kts 262°
2026-05-03 21:57 24.78933 -80.84489 14068 ft 352 kts 262°
2026-05-03 21:57 24.78632 -80.87161 13411 ft 352 kts 262°
2026-05-03 21:57 24.78332 -80.89826 12789 ft 349 kts 262°
2026-05-03 21:58 24.78032 -80.92472 12161 ft 348 kts 263°
2026-05-03 21:58 24.77731 -80.95115 11527 ft 348 kts 264°
2026-05-03 21:58 24.77435 -80.97725 10964 ft 346 kts 263°
2026-05-03 21:58 24.77117 -81.00290 10828 ft 329 kts 259°
2026-05-03 21:59 24.76465 -81.02648 10709 ft 315 kts 248°
2026-05-03 21:59 24.75445 -81.04727 10588 ft 304 kts 239°
2026-05-03 21:59 24.74355 -81.06667 10476 ft 293 kts 240°
2026-05-03 21:59 24.73305 -81.08544 10298 ft 284 kts 240°
2026-05-03 22:00 24.72283 -81.10373 10203 ft 279 kts 240°
2026-05-03 22:00 24.71265 -81.12196 10147 ft 280 kts 240°
2026-05-03 22:00 24.70258 -81.13998 10055 ft 279 kts 240°
2026-05-03 22:00 24.69237 -81.15821 9785 ft 282 kts 240°
2026-05-03 22:01 24.68206 -81.17660 9455 ft 281 kts 240°
2026-05-03 22:01 24.67175 -81.19498 9091 ft 281 kts 239°
2026-05-03 22:01 24.66156 -81.21316 8781 ft 278 kts 239°
2026-05-03 22:01 24.65143 -81.23126 8431 ft 277 kts 239°
2026-05-03 22:02 24.63972 -81.24807 8091 ft 277 kts 231°
2026-05-03 22:02 24.62714 -81.26404 7800 ft 274 kts 230°
2026-05-03 22:02 24.61482 -81.27972 7649 ft 270 kts 230°
2026-05-03 22:02 24.60271 -81.29514 7517 ft 269 kts 230°
2026-05-03 22:03 24.59049 -81.31072 7392 ft 269 kts 230°
2026-05-03 22:03 24.57826 -81.32627 7253 ft 268 kts 230°
2026-05-03 22:03 24.56608 -81.34176 7126 ft 267 kts 230°
2026-05-03 22:03 24.55553 -81.35847 6999 ft 266 kts 243°
2026-05-03 22:04 24.54711 -81.37652 6868 ft 265 kts 243°
2026-05-03 22:04 24.53860 -81.39456 6735 ft 266 kts 242°
2026-05-03 22:04 24.53003 -81.41266 6602 ft 267 kts 243°
2026-05-03 22:04 24.52150 -81.43065 6472 ft 264 kts 243°
2026-05-03 22:05 24.51301 -81.44851 6339 ft 263 kts 243°
2026-05-03 22:05 24.50455 -81.46633 6202 ft 263 kts 243°
2026-05-03 22:05 24.49623 -81.48389 6083 ft 262 kts 243°
2026-05-03 22:05 24.48780 -81.50165 5937 ft 262 kts 242°
2026-05-03 22:06 24.47938 -81.51935 5821 ft 261 kts 242°
2026-05-03 22:06 24.47101 -81.53708 5702 ft 261 kts 244°
2026-05-03 22:06 24.46547 -81.55598 5566 ft 261 kts 259°
2026-05-03 22:06 24.46447 -81.57587 5435 ft 261 kts 268°
2026-05-03 22:07 24.46438 -81.59581 5306 ft 261 kts 268°
2026-05-03 22:07 24.46421 -81.61574 5179 ft 261 kts 268°
2026-05-03 22:07 24.46401 -81.63560 5054 ft 260 kts 268°
2026-05-03 22:07 24.46381 -81.65518 4936 ft 252 kts 268°
2026-05-03 22:08 24.46364 -81.67409 4827 ft 243 kts 268°
2026-05-03 22:08 24.46350 -81.69205 4722 ft 233 kts 268°
2026-05-03 22:08 24.46333 -81.70988 4618 ft 235 kts 268°
2026-05-03 22:08 24.46316 -81.72783 4511 ft 235 kts 268°
2026-05-03 22:09 24.46296 -81.74573 4393 ft 234 kts 268°
2026-05-03 22:09 24.46276 -81.76364 4277 ft 236 kts 268°
2026-05-03 22:09 24.46258 -81.78164 4161 ft 235 kts 268°
2026-05-03 22:10 24.46222 -81.81751 3930 ft 234 kts 268°
2026-05-03 22:10 24.46205 -81.83539 3816 ft 234 kts 268°
2026-05-03 22:10 24.46187 -81.85319 3701 ft 233 kts 268°
2026-05-03 22:10 24.46168 -81.87078 3586 ft 234 kts 268°
2026-05-03 22:11 24.46149 -81.88861 3474 ft 234 kts 268°
2026-05-03 22:11 24.46131 -81.90648 3358 ft 234 kts 268°
2026-05-03 22:11 24.46112 -81.92429 3244 ft 233 kts 269°
2026-05-03 22:11 24.46104 -81.94217 3126 ft 234 kts 272°
2026-05-03 22:12 24.46657 -81.95865 3011 ft 236 kts 309°
2026-05-03 22:12 24.48066 -81.96771 2864 ft 242 kts 346°
2026-05-03 22:12 24.49752 -81.96965 2733 ft 245 kts 356°
2026-05-03 22:12 24.51455 -81.96971 2597 ft 245 kts 358°
2026-05-03 22:13 24.53154 -81.96903 2444 ft 242 kts
2026-05-03 22:13 24.54637 -81.96156 2300 ft 235 kts 44°
2026-05-03 22:13 24.55383 -81.94635 2172 ft 225 kts 82°
2026-05-03 22:13 24.55391 -81.92972 2074 ft 216 kts 92°
2026-05-03 22:14 24.55388 -81.91354 1965 ft 206 kts 90°
2026-05-03 22:14 24.55413 -81.89833 1841 ft 190 kts 89°
2026-05-03 22:14 24.55440 -81.88482 1756 ft 167 kts 89°
2026-05-03 22:14 24.55462 -81.87183 1664 ft 171 kts 88°
2026-05-03 22:15 24.55483 -81.85878 1564 ft 171 kts 88°
2026-05-03 22:15 24.55503 -81.84575 1446 ft 170 kts 89°
2026-05-03 22:15 24.55519 -81.83298 1196 ft 159 kts 89°
2026-05-03 22:15 24.55533 -81.82139 993 ft 150 kts 88°
2026-05-03 22:16 24.55546 -81.81017 808 ft 145 kts 88°
2026-05-03 22:16 24.55560 -81.79921 623 ft 141 kts 87°
2026-05-03 22:16 24.55575 -81.78852 421 ft 138 kts 86°
2026-05-03 22:16 24.55595 -81.77787 238 ft 141 kts 84°
2026-05-03 22:17 24.55607 -81.76726 33 ft 137 kts 86°
2026-05-03 22:17 24.55614 -81.75883 11 ft 70 kts 90°
2026-05-03 22:17 24.55615 -81.75661 15 ft 4 kts 89°
2026-05-03 22:17 24.55582 -81.75585 16 ft 13 kts 165°